[[{"header":{"parameterUnit":"m.s-1","parameterCategory":2,"la1":30.2991,"la2":30.254,"lo1":-89.0895,"lo2":-89.0444,"dy":0.0017,"dx":0.0017,"nx":28,"ny":28,"refTime":"2024-10-13T09:00:00:Z","depth":"0","parameterNumber":2,"parameterNumberName":"U-component_of_CURRENTS"},"data":[0,0,0,0,0,0,0,0,0,0,0,0,0,0,0,0,0,0,0,0,0,0,0,0,0,0,0,0,0,0,0,0,0,0,0,0,0,0,0,0,0,0,0,0,0,0,0,0,0,0,0,0,0,0,0,0,0,0,0.3236,0.3236,0,0.3234,0.3234,0.3234,0.3255,0.3255,0.3256,0.3256,0.3311,0.3312,0.3313,0,0,0,0,0,0,0,0,0,0,0,0,0,0.3306,0.3304,0.3236,0.3236,0.3235,0.3234,0.3234,0.3234,0.3255,0.3255,0.3256,0.3256,0.3311,0.3312,0.3314,0,0,0,0,0,0,0,0,0,0,0,0,0,0.3289,0.3304,0.3236,0.3244,0.3245,0.3234,0.3234,0.3234,0.3255,0.3255,0.3256,0.3257,0.3311,0.3312,0.3314,0.3312,0,0,0.3319,0.332,0,0,0,0,0,0,0,0,0.3289,0.3286,0.3243,0.3243,0.3244,0.3244,0.3279,0.3263,0.3255,0.3253,0.3256,0.3257,0.3292,0.3296,0.3296,0.3315,0.3317,0.3319,0.332,0.3321,0.3321,0,0,0,0,0,0,0,0.3291,0.3287,0.3237,0.3243,0.3243,0.3265,0.3263,0.3276,0.3272,0.3253,0.3254,0.3251,0.3293,0.3294,0.3297,0.3318,0.3319,0.332,0.3321,0.3322,0.3374,0.3374,0,0,0,0,0,0,0.3283,0.3287,0.3237,0.3237,0.3267,0.3263,0.326,0.3245,0.327,0.3274,0.325,0.3252,0.3291,0.3295,0.3299,0.3311,0.3321,0.3322,0.3323,0.3373,0.3374,0.3374,0,0,0,0,0,0,0.3285,0.3278,0.3237,0.3262,0.3258,0.326,0.3243,0.3244,0.3243,0.3267,0.3273,0.3247,0.3292,0.3297,0.3312,0.3313,0.3323,0.3324,0.3373,0.3374,0.3374,0.3327,0,0,0,0,0,0,0.3286,0.3279,0.3269,0.326,0.3256,0.3226,0.3242,0.3244,0.3239,0.3241,0.3266,0.3272,0.3292,0.3309,0.3313,0.3315,0.3326,0.3373,0.3373,0.3374,0.3328,0.3326,0.3324,0,0,0,0,0,0.3289,0.3263,0.3269,0.3263,0.3241,0.3225,0.3225,0.3231,0.3239,0.3233,0.3254,0.3271,0.3318,0.331,0.3315,0.3318,0.3372,0.3373,0.3374,0.3329,0.3326,0.3324,0,0,0,0,0,0,0.3283,0.3263,0.3268,0.3237,0.3233,0.3228,0.3218,0.3225,0.3236,0.324,0.3268,0.3275,0.3297,0.3312,0.3303,0.3338,0.3351,0.3353,0.3315,0.3313,0.3311,0.3308,0.3327,0,0,0,0,0,0.3278,0.3253,0.3247,0.322,0.3217,0.3219,0.3215,0.322,0.3225,0.3229,0.3248,0.3275,0.3304,0.331,0.3339,0.3343,0.3373,0.3353,0.3351,0.3348,0.3352,0.3403,0.3405,0.3377,0.3377,0.3377,0,0,0.3261,0.3251,0.3234,0.3218,0.3213,0.3196,0.3217,0.3204,0.3196,0.3235,0.3233,0.3271,0.3307,0.3323,0.3334,0.3332,0.337,0.335,0.3347,0.3352,0.3404,0.3407,0.3409,0.3378,0.3378,0.3378,0,0,0.3213,0.3212,0.3178,0.3177,0.3172,0.3176,0.317,0.317,0.3179,0.3181,0.3221,0.3255,0.3276,0.331,0.3329,0.3331,0.3366,0.3343,0.3318,0.3367,0.3369,0.3372,0.34,0.3406,0.3331,0.3331,0.3331,0,0.3198,0.3161,0.3167,0.3144,0.3142,0.3162,0.3139,0.3145,0.3153,0.3168,0.3175,0.3243,0.3271,0.3309,0.3313,0.3325,0.3355,0.3319,0.3363,0.3367,0.337,0.3398,0.3405,0.3329,0.3329,0.3329,0.333,0,0.3131,0.3112,0.3092,0.3073,0.3072,0.3056,0.307,0.3078,0.3096,0.3113,0.3158,0.3202,0.3246,0.3263,0.3284,0.333,0.3342,0.3361,0.3365,0.337,0.3399,0.3407,0.3326,0.3327,0.3327,0.3328,0,0,0.3076,0.3049,0.3046,0.3039,0.3042,0.3032,0.303,0.3043,0.3053,0.3081,0.31,0.316,0.3201,0.3227,0.3271,0.331,0.3354,0.334,0.3344,0.3359,0.3452,0.3333,0.3331,0.3383,0.3385,0.3386,0.3457,0,0.3029,0.2977,0.2982,0.2948,0.2931,0.2964,0.2963,0.2985,0.3014,0.3039,0.3104,0.3141,0.3181,0.3209,0.3255,0.3341,0.3376,0.3333,0.3453,0.3456,0.3343,0.3336,0.3131,0.3166,0.3465,0.3466,0.3467,0,0.2976,0.2952,0.2906,0.2906,0.2903,0.2888,0.2916,0.2919,0.2969,0.2997,0.305,0.3103,0.3174,0.3201,0.3336,0.3308,0.3375,0.3433,0.3437,0.3349,0.3351,0.3214,0.317,0.3062,0.348,0.3479,0.3478,0,0.2948,0.2912,0.2878,0.2874,0.2867,0.2863,0.2868,0.2908,0.2918,0.2975,0.2989,0.3087,0.3128,0.3236,0.3342,0.3352,0.3477,0.3505,0.3459,0.3452,0.3311,0.3287,0.3168,0.3594,0.3594,0.3594,0.3593,0,0.2911,0.2881,0.286,0.2841,0.2812,0.2831,0.2819,0.2844,0.288,0.2881,0.2966,0.2985,0.3141,0.3223,0.3332,0.34,0.347,0.345,0.346,0.3285,0.326,0.3188,0.3184,0.3596,0.3596,0.3595,0.3595,0,0.2861,0.2857,0.2814,0.2799,0.2792,0.2771,0.2765,0.2757,0.2808,0.2811,0.2826,0.2921,0.3013,0.3147,0.3314,0.3358,0.3346,0.3466,0.3232,0.3211,0.3038,0.304,0.2892,0.2837,0.3423,0.342,0.3418,0,0.2803,0.2777,0.2765,0.273,0.271,0.2685,0.2663,0.2712,0.2707,0.2761,0.2753,0.2838,0.2872,0.3044,0.313,0.3256,0.3232,0.3145,0.3118,0.2978,0.2992,0.2919,0.2881,0.2924,0.2918,0.2913,0.2909,0,0.2666,0.2682,0.2646,0.2583,0.255,0.2542,0.252,0.252,0.2572,0.2575,0.2581,0.2615,0.2738,0.2745,0.2885,0.2959,0.2938,0.3044,0.2969,0.2633,0.2479,0.2446,0.2929,0.2864,0.2869,0.2872,0.2875,0.2876,0.2525,0.2474,0.2418,0.2346,0.2349,0.2338,0.2282,0.2297,0.2273,0.2232,0.2369,0.2328,0.2403,0.2546,0.2616,0.2529,0.264,0.2474,0.2506,0.2458,0.2323,0.2684,0.2584,0.2586,0.2589,0.2591,0.2592,0,0.2215,0.2187,0.215,0.2071,0.203,0.21,0.2109,0.2043,0.1959,0.2004,0.1984,0.195,0.1952,0.2044,0.2033,0.1994,0.1976,0.1961,0.182,0.1834,0.2199,0.2091,0.179,0.179,0.179,0.1791,0.1791,0.1791,0.2012,0.1872,0.1865,0.1706,0.1706,0.1615,0.1604,0.1585,0.1598,0.15,0.1443,0.1494,0.1608,0.1597,0.1552,0.1552,0.1508,0.1395,0.1516,0.1763,0.1814,0.1861,0.1754,0.1388,0.1387,0.1018,0.1015,0.1013]},{"header":{"parameterUnit":"m.s-1","parameterCategory":2,"la1":30.2991,"la2":30.254,"lo1":-89.0895,"lo2":-89.0444,"dy":0.0017,"dx":0.0017,"nx":28,"ny":28,"refTime":"2024-10-13T09:00:00:Z","depth":"0","parameterNumber":3,"parameterNumberName":"V-component_of_CURRENTS"},"data":[0,0,0,0,0,0,0,0,0,0,0,0,0,0,0,0,0,0,0,0,0,0,0,0,0,0,0,0,0,0,0,0,0,0,0,0,0,0,0,0,0,0,0,0,0,0,0,0,0,0,0,0,0,0,0,0,0,0,-0.0269,-0.0268,0,-0.0209,-0.0209,-0.0208,-0.0186,-0.0186,-0.0186,-0.0186,-0.0163,-0.0163,-0.0162,0,0,0,0,0,0,0,0,0,0,0,0,0,-0.0346,-0.0345,-0.0269,-0.0268,-0.0267,-0.021,-0.0209,-0.0208,-0.0186,-0.0186,-0.0186,-0.0186,-0.0164,-0.0163,-0.0162,0,0,0,0,0,0,0,0,0,0,0,0,0,-0.0303,-0.0345,-0.0269,-0.0249,-0.0246,-0.021,-0.0209,-0.0208,-0.0186,-0.0186,-0.0186,-0.0186,-0.0164,-0.0163,-0.0162,-0.015,0,0,-0.0158,-0.0158,0,0,0,0,0,0,0,0,-0.0305,-0.03,-0.0253,-0.025,-0.0247,-0.0205,-0.0228,-0.019,-0.0186,-0.0209,-0.0186,-0.0186,-0.018,-0.0178,-0.0166,-0.0149,-0.0148,-0.0158,-0.0157,-0.0157,-0.0157,0,0,0,0,0,0,0,-0.0308,-0.0302,-0.0246,-0.0252,-0.0249,-0.0237,-0.0231,-0.022,-0.0195,-0.0207,-0.0205,-0.0198,-0.0179,-0.0167,-0.0165,-0.0148,-0.0158,-0.0157,-0.0156,-0.0156,-0.0149,-0.0149,0,0,0,0,0,0,-0.0315,-0.0305,-0.0247,-0.0244,-0.0277,-0.0236,-0.0229,-0.0219,-0.0194,-0.019,-0.0198,-0.0197,-0.0169,-0.0167,-0.0165,-0.0154,-0.0157,-0.0156,-0.0155,-0.0148,-0.0149,-0.0149,0,0,0,0,0,0,-0.0317,-0.0311,-0.025,-0.0273,-0.0265,-0.0234,-0.0222,-0.0217,-0.0206,-0.0187,-0.0184,-0.0192,-0.0169,-0.0166,-0.0153,-0.0153,-0.0155,-0.0154,-0.0148,-0.0148,-0.0149,-0.0131,0,0,0,0,0,0,-0.032,-0.0312,-0.0308,-0.0273,-0.0264,-0.0228,-0.0222,-0.0216,-0.0201,-0.0199,-0.0181,-0.0179,-0.0169,-0.0155,-0.0152,-0.0152,-0.0154,-0.0147,-0.0148,-0.0149,-0.0131,-0.0131,-0.0132,0,0,0,0,0,-0.0322,-0.0316,-0.0308,-0.0301,-0.0258,-0.0228,-0.0222,-0.0201,-0.0201,-0.0193,-0.0181,-0.0179,-0.0159,-0.0153,-0.015,-0.015,-0.0146,-0.0148,-0.0149,-0.0131,-0.0131,-0.0132,0,0,0,0,0,0,-0.035,-0.0312,-0.0302,-0.0285,-0.0259,-0.0224,-0.0215,-0.0202,-0.0186,-0.0187,-0.0174,-0.017,-0.0161,-0.0162,-0.0156,-0.0154,-0.0157,-0.0158,-0.0145,-0.0145,-0.0145,-0.0147,-0.0153,0,0,0,0,0,-0.0354,-0.0337,-0.0302,-0.0289,-0.0277,-0.0247,-0.0234,-0.0218,-0.0197,-0.019,-0.0174,-0.0169,-0.0163,-0.0158,-0.0151,-0.0143,-0.0141,-0.0147,-0.0147,-0.0147,-0.0148,-0.0146,-0.0146,-0.0153,-0.0153,-0.0153,0,0,-0.0362,-0.0338,-0.033,-0.0294,-0.0273,-0.0249,-0.024,-0.0218,-0.0201,-0.0191,-0.0168,-0.0163,-0.0161,-0.0151,-0.0149,-0.0151,-0.0143,-0.0148,-0.0148,-0.0149,-0.0147,-0.0147,-0.0146,-0.0153,-0.0153,-0.0153,0,0,-0.0365,-0.0348,-0.0334,-0.031,-0.0276,-0.0255,-0.025,-0.0213,-0.0202,-0.0177,-0.0173,-0.0168,-0.015,-0.0149,-0.0148,-0.0147,-0.0142,-0.0151,-0.0149,-0.0147,-0.0146,-0.0145,-0.0131,-0.0129,-0.0152,-0.0152,-0.0152,0,-0.038,-0.035,-0.0326,-0.0303,-0.0284,-0.0259,-0.0238,-0.022,-0.0183,-0.0172,-0.0171,-0.0148,-0.0149,-0.0142,-0.0146,-0.0145,-0.0139,-0.0144,-0.0145,-0.0145,-0.0144,-0.013,-0.0128,-0.0152,-0.0152,-0.0152,-0.0152,0,-0.0365,-0.0342,-0.0332,-0.0293,-0.0272,-0.025,-0.0219,-0.0201,-0.0185,-0.0162,-0.0145,-0.0142,-0.013,-0.0136,-0.014,-0.014,-0.0135,-0.0142,-0.0141,-0.0142,-0.0127,-0.0125,-0.0151,-0.0151,-0.0151,-0.0151,0,0,-0.0401,-0.0334,-0.0333,-0.0304,-0.0263,-0.0239,-0.0218,-0.0183,-0.0157,-0.0142,-0.011,-0.0121,-0.0117,-0.0118,-0.0124,-0.013,-0.0122,-0.0137,-0.0137,-0.0113,-0.0106,-0.0072,-0.0066,-0.0126,-0.0126,-0.0126,-0.0092,0,-0.0399,-0.035,-0.0322,-0.0279,-0.0248,-0.0219,-0.0193,-0.0162,-0.0134,-0.0095,-0.0102,-0.0076,-0.011,-0.01,-0.0114,-0.0111,-0.0119,-0.013,-0.0116,-0.0115,-0.0078,-0.0064,-0.0055,-0.0021,-0.009,-0.009,-0.009,0,-0.0395,-0.0359,-0.0316,-0.0249,-0.0235,-0.0208,-0.0155,-0.0127,-0.0082,-0.0061,-0.0048,-0.0038,-0.0042,-0.0069,-0.0081,-0.0084,-0.0102,-0.0107,-0.0106,-0.008,-0.0078,-0.0035,-0.0015,-0.0043,-0.0087,-0.0087,-0.0087,0,-0.0415,-0.0355,-0.0317,-0.0296,-0.0223,-0.0202,-0.0167,-0.0117,-0.0077,-0.0036,0.0003,-0.0002,0.0018,-0.0016,-0.0033,-0.0056,-0.003,-0.0062,-0.005,-0.0047,-0.004,-0.0037,-0.004,-0.0081,-0.0081,-0.0081,-0.0081,0,-0.0412,-0.0374,-0.0319,-0.0294,-0.0236,-0.0199,-0.0135,-0.0101,-0.0042,0.0021,0.0019,0.0068,0.0031,0.0046,-0.0001,-0.0001,-0.0007,-0.0042,-0.0036,-0.0033,-0.0029,-0.0054,-0.0072,-0.008,-0.008,-0.008,-0.008,0,-0.0402,-0.0377,-0.0321,-0.026,-0.0236,-0.0191,-0.0099,-0.0049,-0.0008,0.0075,0.009,0.0134,0.0158,0.0132,0.011,0.0063,0.0043,0.0038,0.0054,0.0062,0.0033,0.0016,0.0045,0.0051,0.005,0.0052,0.0052,0,-0.0361,-0.0343,-0.0293,-0.0254,-0.0215,-0.0145,-0.009,-0.0035,0.0021,0.012,0.0162,0.0217,0.0268,0.0266,0.021,0.0164,0.0111,0.0122,0.0065,0.0044,0.0029,0.0024,0.0025,0.0083,0.0084,0.0085,0.0086,0,-0.0271,-0.0282,-0.0241,-0.0188,-0.0133,-0.0071,0.0005,0.0052,0.0122,0.0187,0.0279,0.0328,0.0356,0.0348,0.0301,0.0242,0.0124,0.0139,0.0106,0.0051,0.0055,0.006,0.0056,0.0094,0.0093,0.0092,0.0092,0.0092,-0.0181,-0.0154,-0.0128,-0.0079,-0.0036,0.0011,0.0071,0.0138,0.0224,0.0334,0.0365,0.0461,0.044,0.0393,0.0325,0.021,0.0203,0.0141,0.0123,0.012,0.0123,0.015,0.0201,0.02,0.02,0.02,0.02,0,-0.0027,-0.0033,0.0,0.0048,0.008,0.0077,0.015,0.0205,0.0303,0.0399,0.0483,0.0551,0.0501,0.0421,0.0277,0.0195,0.0156,0.0145,0.0115,0.0116,0.0127,0.0124,0.0175,0.0175,0.0175,0.0175,0.0175,0.0175,0.0076,0.0115,0.0088,0.0154,0.0169,0.0223,0.0253,0.0317,0.0391,0.0522,0.0606,0.0665,0.0652,0.0383,0.0201,0.0147,0.0104,0.0108,0.0094,0.0064,0.0061,0.0058,0.005,0.0085,0.0085,0.009,0.009,0.009]}],[{"header":{"parameterUnit":"m.s-1","parameterCategory":2,"la1":30.2991,"la2":30.254,"lo1":-89.0895,"lo2":-89.0444,"dy":0.0017,"dx":0.0017,"nx":28,"ny":28,"refTime":"2024-10-13T09:00:00:Z","depth":"2","parameterNumber":2,"parameterNumberName":"U-component_of_CURRENTS"},"data":[0,0,0,0,0,0,0,0,0,0,0,0,0,0,0,0,0,0,0,0,0,0,0,0,0,0,0,0,0,0,0,0,0,0,0,0,0,0,0,0,0,0,0,0,0,0,0,0,0,0,0,0,0,0,0,0,0,0,0.1625,0.1626,0,0.1628,0.1628,0.1628,0.1631,0.1631,0.1631,0.1631,0.1682,0.1684,0.1685,0,0,0,0,0,0,0,0,0,0,0,0,0,0.1642,0.1641,0.1625,0.1626,0.1626,0.1628,0.1628,0.1628,0.1631,0.1631,0.1631,0.1631,0.1682,0.1683,0.1685,0,0,0,0,0,0,0,0,0,0,0,0,0,0.1638,0.1641,0.1625,0.1628,0.1628,0.1628,0.1628,0.1628,0.1631,0.1631,0.1631,0.1631,0.1681,0.1683,0.1685,0.1693,0,0,0.1691,0.1692,0,0,0,0,0,0,0,0,0.1638,0.1637,0.1628,0.1628,0.1628,0.163,0.1653,0.1652,0.1631,0.1629,0.1631,0.1632,0.167,0.1673,0.1671,0.1695,0.1697,0.1691,0.1692,0.1693,0.1693,0,0,0,0,0,0,0,0.1638,0.1637,0.1626,0.1628,0.1628,0.1636,0.1635,0.1652,0.1649,0.1629,0.163,0.1631,0.167,0.1669,0.1672,0.1698,0.1691,0.1693,0.1694,0.1694,0.1851,0.1854,0,0,0,0,0,0,0.1638,0.1637,0.1625,0.1626,0.1635,0.1635,0.1635,0.1629,0.1647,0.165,0.1631,0.1631,0.1666,0.167,0.1674,0.1743,0.1693,0.1695,0.1696,0.1848,0.1851,0.1855,0,0,0,0,0,0,0.1639,0.1637,0.1625,0.1633,0.1632,0.1635,0.1628,0.1629,0.1632,0.1648,0.1652,0.1635,0.1666,0.1671,0.1709,0.1743,0.1695,0.1697,0.1844,0.1849,0.1853,0.1844,0,0,0,0,0,0,0.1639,0.1637,0.1634,0.1632,0.1632,0.1625,0.1628,0.1629,0.1633,0.1634,0.1653,0.1658,0.1666,0.1706,0.1711,0.1745,0.1699,0.184,0.1846,0.1852,0.184,0.1847,0.1853,0,0,0,0,0,0.1639,0.1631,0.1633,0.1632,0.1626,0.1625,0.1625,0.1628,0.1633,0.1633,0.1661,0.1657,0.1747,0.1709,0.1714,0.1749,0.1837,0.1844,0.1851,0.1837,0.1846,0.1853,0,0,0,0,0,0,0.1632,0.163,0.1633,0.1623,0.1626,0.1626,0.1626,0.1631,0.165,0.1657,0.1674,0.1681,0.1738,0.1751,0.1709,0.1821,0.1801,0.1809,0.1789,0.1798,0.1804,0.1784,0.17,0,0,0,0,0,0.163,0.1623,0.1627,0.1618,0.1621,0.1626,0.1627,0.1631,0.1647,0.1654,0.1676,0.1719,0.177,0.1786,0.1829,0.1865,0.1892,0.1905,0.1911,0.1916,0.191,0.1986,0.1997,0.1877,0.1877,0.1877,0,0,0.1623,0.1622,0.1617,0.1616,0.1619,0.1626,0.1627,0.163,0.1644,0.1659,0.1693,0.1739,0.179,0.1846,0.1874,0.1855,0.1971,0.1925,0.1928,0.1919,0.1994,0.2005,0.2015,0.1882,0.1881,0.188,0,0,0.1606,0.1608,0.1599,0.1607,0.1615,0.1624,0.1627,0.1641,0.1655,0.1692,0.1729,0.1789,0.1846,0.1891,0.1922,0.1993,0.201,0.2024,0.2025,0.2098,0.2107,0.2116,0.2172,0.2185,0.2018,0.2018,0.2018,0,0.1601,0.1592,0.1597,0.1599,0.1606,0.1625,0.1627,0.1647,0.1676,0.1698,0.1708,0.1834,0.187,0.1949,0.1981,0.2003,0.2043,0.1977,0.2102,0.2111,0.2119,0.2175,0.219,0.2018,0.2018,0.2018,0.2018,0,0.1581,0.1583,0.1582,0.1593,0.16,0.1607,0.1636,0.1658,0.1689,0.1718,0.1804,0.1865,0.1936,0.1976,0.1994,0.2087,0.2097,0.2102,0.2065,0.213,0.2186,0.2201,0.2019,0.2019,0.2019,0.2019,0,0,0.1571,0.1564,0.1572,0.1584,0.1601,0.1614,0.1637,0.1672,0.1709,0.1762,0.1817,0.1918,0.1956,0.1997,0.2045,0.2106,0.2204,0.2125,0.2129,0.2152,0.2363,0.214,0.2135,0.223,0.2232,0.2234,0.2379,0,0.1563,0.1563,0.1556,0.158,0.1598,0.1614,0.164,0.1679,0.1725,0.1789,0.1865,0.1951,0.1964,0.2018,0.2077,0.2182,0.2245,0.2164,0.2323,0.2327,0.2095,0.2145,0.1985,0.2079,0.2394,0.2396,0.2398,0,0.1591,0.1574,0.1593,0.1601,0.1608,0.1635,0.169,0.1712,0.179,0.182,0.1894,0.1956,0.2062,0.2071,0.2243,0.2193,0.2275,0.2346,0.2353,0.2151,0.213,0.2069,0.2095,0.2424,0.2422,0.242,0.2418,0,0.1662,0.1631,0.165,0.1657,0.1659,0.1684,0.1696,0.1753,0.1793,0.187,0.1924,0.2013,0.2122,0.2205,0.2324,0.2303,0.251,0.2499,0.2378,0.2364,0.2258,0.2226,0.2626,0.2626,0.2626,0.2625,0.2625,0,0.1716,0.1749,0.1696,0.1727,0.1757,0.1742,0.1818,0.1824,0.1874,0.1924,0.1972,0.2028,0.2171,0.2286,0.2349,0.239,0.2532,0.2374,0.238,0.2249,0.2217,0.2536,0.2524,0.2631,0.2629,0.2628,0.2627,0,0.1855,0.1827,0.1862,0.1824,0.1825,0.1874,0.1901,0.1912,0.1968,0.2036,0.2065,0.2125,0.2191,0.2302,0.2465,0.2435,0.249,0.2484,0.2295,0.2269,0.2292,0.2278,0.2332,0.2325,0.232,0.2315,0.2311,0,0.1916,0.1944,0.1946,0.1927,0.1928,0.1972,0.1962,0.1991,0.1987,0.2065,0.2069,0.2165,0.2143,0.225,0.2233,0.226,0.2384,0.2124,0.2009,0.2257,0.226,0.2256,0.225,0.1912,0.1905,0.19,0.1895,0,0.1968,0.2004,0.1988,0.1938,0.194,0.1964,0.1956,0.1987,0.1991,0.2017,0.1991,0.1984,0.2036,0.1917,0.1933,0.1929,0.2071,0.1993,0.2382,0.1946,0.1854,0.1858,0.187,0.1844,0.1849,0.1853,0.1856,0.1858,0.1946,0.1949,0.1868,0.1835,0.1855,0.1835,0.1814,0.1782,0.1762,0.17,0.1805,0.1702,0.1735,0.1554,0.156,0.1576,0.1688,0.1645,0.1669,0.1697,0.1556,0.1452,0.1344,0.1346,0.1347,0.1349,0.1351,0,0.1706,0.1698,0.169,0.1627,0.1602,0.1659,0.1657,0.1573,0.1463,0.1479,0.1418,0.1242,0.1154,0.1221,0.1156,0.1152,0.1229,0.1117,0.1228,0.1275,0.1319,0.1165,0.0846,0.0845,0.0844,0.0843,0,0,0.1511,0.1413,0.1426,0.1303,0.1306,0.1216,0.1196,0.1128,0.1105,0.098,0.0921,0.0964,0.1072,0.0881,0.0904,0.0866,0.1064,0.0835,0.1231,0.1401,0.1443,0.1604,0.1414,0,0,0,0,0]},{"header":{"parameterUnit":"m.s-1","parameterCategory":2,"la1":30.2991,"la2":30.254,"lo1":-89.0895,"lo2":-89.0444,"dy":0.0017,"dx":0.0017,"nx":28,"ny":28,"refTime":"2024-10-13T09:00:00:Z","depth":"2","parameterNumber":3,"parameterNumberName":"V-component_of_CURRENTS"},"data":[0,0,0,0,0,0,0,0,0,0,0,0,0,0,0,0,0,0,0,0,0,0,0,0,0,0,0,0,0,0,0,0,0,0,0,0,0,0,0,0,0,0,0,0,0,0,0,0,0,0,0,0,0,0,0,0,0,0,0.0507,0.0508,0,0.0522,0.0522,0.0522,0.0475,0.0474,0.0472,0.0471,0.0367,0.0365,0.0364,0,0,0,0,0,0,0,0,0,0,0,0,0,0.046,0.0461,0.0507,0.0508,0.0508,0.0522,0.0522,0.0522,0.0475,0.0474,0.0472,0.0471,0.0367,0.0365,0.0363,0,0,0,0,0,0,0,0,0,0,0,0,0,0.0477,0.0461,0.0507,0.0487,0.0485,0.0522,0.0522,0.0522,0.0476,0.0474,0.0472,0.047,0.0368,0.0365,0.0363,0.039,0,0,0.0356,0.0355,0,0,0,0,0,0,0,0,0.0476,0.0479,0.049,0.0488,0.0487,0.0495,0.0467,0.0472,0.0476,0.0479,0.0471,0.0469,0.04,0.0395,0.0403,0.0385,0.038,0.0356,0.0355,0.0354,0.0353,0,0,0,0,0,0,0,0.0475,0.0478,0.0512,0.049,0.0488,0.0484,0.0484,0.0468,0.0448,0.0478,0.0475,0.0478,0.0398,0.0406,0.04,0.0379,0.0356,0.0354,0.0353,0.0352,0.0349,0.035,0,0,0,0,0,0,0.0476,0.0477,0.0512,0.0513,0.0477,0.0486,0.0486,0.0494,0.0451,0.0443,0.048,0.0476,0.0411,0.0403,0.0396,0.0385,0.0354,0.0351,0.035,0.0347,0.0349,0.035,0,0,0,0,0,0,0.0476,0.048,0.0511,0.0495,0.0499,0.0489,0.0498,0.0495,0.048,0.0454,0.0443,0.0465,0.0409,0.0399,0.0388,0.0382,0.035,0.0348,0.0346,0.0348,0.035,0.0388,0,0,0,0,0,0,0.0474,0.0479,0.0478,0.0496,0.05,0.0526,0.05,0.0497,0.0487,0.0481,0.0438,0.0428,0.0406,0.0392,0.0385,0.0378,0.0347,0.0344,0.0347,0.0349,0.0385,0.0391,0.0396,0,0,0,0,0,0.0473,0.0481,0.0478,0.0482,0.0502,0.0527,0.0529,0.0514,0.0488,0.049,0.0471,0.0428,0.0402,0.0391,0.0384,0.0375,0.0343,0.0346,0.0349,0.0383,0.039,0.0396,0,0,0,0,0,0,0.045,0.0478,0.0475,0.0488,0.0503,0.0519,0.0514,0.0509,0.0498,0.0477,0.0448,0.0439,0.0428,0.0406,0.0395,0.0386,0.0364,0.0365,0.0392,0.0399,0.0404,0.0399,0.0345,0,0,0,0,0,0.045,0.0466,0.0489,0.0496,0.05,0.0505,0.0508,0.0502,0.05,0.0491,0.0462,0.0439,0.0442,0.0421,0.0414,0.0407,0.0378,0.0398,0.0403,0.0408,0.0402,0.0379,0.0381,0.036,0.036,0.036,0,0,0.044,0.046,0.0464,0.0493,0.0496,0.0515,0.05,0.0502,0.0514,0.0481,0.0466,0.0456,0.0448,0.0448,0.0439,0.042,0.04,0.0411,0.0415,0.0406,0.0382,0.0384,0.0386,0.0362,0.0361,0.0361,0,0,0.0432,0.0446,0.0452,0.0475,0.0489,0.0506,0.0504,0.0509,0.0502,0.0502,0.0492,0.049,0.0459,0.0473,0.0474,0.0508,0.0438,0.0486,0.0495,0.0474,0.0475,0.0475,0.0439,0.0436,0.0479,0.0479,0.0479,0,0.0403,0.0432,0.0457,0.0475,0.0491,0.0501,0.0513,0.0527,0.0526,0.0525,0.0492,0.049,0.048,0.0511,0.0521,0.0518,0.0477,0.0468,0.0479,0.0479,0.0478,0.0441,0.0437,0.0481,0.0481,0.0481,0.0481,0,0.0413,0.0431,0.0437,0.0471,0.0498,0.0507,0.054,0.0545,0.0528,0.0536,0.0537,0.0536,0.052,0.0533,0.0531,0.0536,0.0498,0.0495,0.0456,0.0483,0.0442,0.0437,0.0484,0.0484,0.0483,0.0482,0,0,0.0319,0.0421,0.041,0.0428,0.0492,0.0501,0.0546,0.0578,0.0581,0.0574,0.0569,0.0596,0.0562,0.0564,0.0562,0.0557,0.0529,0.0511,0.0509,0.0464,0.0449,0.0448,0.0442,0.0506,0.0506,0.0506,0.0419,0,0.0293,0.0331,0.0402,0.0426,0.0438,0.05,0.0535,0.057,0.0588,0.0586,0.0599,0.058,0.0585,0.0549,0.0555,0.0542,0.0516,0.0551,0.0439,0.0436,0.0424,0.0438,0.0409,0.0332,0.0414,0.0413,0.0413,0,0.0241,0.0285,0.0306,0.0391,0.0398,0.0414,0.046,0.0495,0.0544,0.055,0.0558,0.0553,0.056,0.0536,0.0517,0.0524,0.0474,0.0466,0.0462,0.0442,0.0426,0.0321,0.0319,0.0404,0.0404,0.0405,0.0406,0,0.0115,0.0198,0.021,0.0237,0.034,0.0341,0.0376,0.0444,0.048,0.0491,0.0502,0.0514,0.0486,0.046,0.0454,0.045,0.0426,0.0416,0.0373,0.0371,0.0318,0.0314,0.037,0.037,0.037,0.0371,0.0371,0,0.0049,0.0051,0.0134,0.0134,0.0155,0.0222,0.0237,0.0295,0.035,0.0405,0.0429,0.0475,0.0456,0.0461,0.0438,0.0403,0.0399,0.037,0.0352,0.0333,0.0331,0.0373,0.0375,0.0367,0.0368,0.0369,0.0369,0,-0.0061,-0.0021,0.0,0.0075,0.0095,0.0086,0.0178,0.0217,0.0244,0.0315,0.0306,0.0404,0.0423,0.0429,0.04,0.0371,0.0345,0.0322,0.0299,0.0281,0.0298,0.0302,0.0243,0.0242,0.0241,0.0241,0.024,0,-0.0075,-0.0092,-0.0046,-0.0013,0.0021,0.0035,0.0089,0.0144,0.0209,0.031,0.0357,0.0381,0.0461,0.0433,0.0386,0.0324,0.0341,0.0226,0.0231,0.0298,0.0286,0.0292,0.0297,0.0165,0.0164,0.0163,0.0162,0,-0.0067,-0.01,-0.006,-0.0017,0.0014,0.0077,0.0133,0.0164,0.0249,0.0308,0.0419,0.0466,0.0461,0.043,0.0337,0.0295,0.0241,0.0206,0.0271,0.0219,0.0222,0.0212,0.022,0.0155,0.0156,0.0156,0.0157,0.0157,-0.003,-0.002,0.0001,0.0038,0.0079,0.0129,0.0165,0.0246,0.0316,0.0415,0.0466,0.0529,0.0471,0.0375,0.0299,0.0193,0.0207,0.0143,0.0145,0.0149,0.0173,0.0177,0.0104,0.0104,0.0105,0.0105,0.0105,0,0.0082,0.0066,0.0098,0.0126,0.0158,0.0162,0.0243,0.0282,0.0365,0.0447,0.0513,0.0472,0.0426,0.0364,0.0191,0.0096,0.0087,0.0066,0.007,0.0076,0.0082,0.0105,0.0016,0.0016,0.0016,0.0016,0,0,0.0158,0.0173,0.0144,0.0188,0.0208,0.0252,0.0284,0.0346,0.0402,0.0477,0.0504,0.0543,0.0455,0.032,0.02,0.0102,0.0109,0.008,0.0154,0.0175,0.0183,0.0121,0.0162,0,0,0,0,0]}],[{"header":{"parameterUnit":"m.s-1","parameterCategory":2,"la1":30.2991,"la2":30.254,"lo1":-89.0895,"lo2":-89.0444,"dy":0.0017,"dx":0.0017,"nx":28,"ny":28,"refTime":"2024-10-13T09:00:00:Z","depth":"4","parameterNumber":2,"parameterNumberName":"U-component_of_CURRENTS"},"data":[0,0,0,0,0,0,0,0,0,0,0,0,0,0,0,0,0,0,0,0,0,0,0,0,0,0,0,0,0,0,0,0,0,0,0,0,0,0,0,0,0,0,0,0,0,0,0,0,0,0,0,0,0,0,0,0,0,0,-0.0456,-0.0455,0,-0.044,-0.044,-0.0439,-0.0366,-0.0365,-0.0363,-0.0361,-0.0341,-0.0342,-0.0343,0,0,0,0,0,0,0,0,0,0,0,0,0,-0.0446,-0.0447,-0.0456,-0.0455,-0.0455,-0.044,-0.044,-0.0439,-0.0366,-0.0364,-0.0362,-0.0361,-0.0341,-0.0342,-0.0343,0,0,0,0,0,0,0,0,0,0,0,0,0,-0.0442,-0.0447,-0.0456,-0.0418,-0.0414,-0.044,-0.044,-0.0439,-0.0367,-0.0364,-0.0362,-0.036,-0.0341,-0.0342,-0.0343,-0.0402,0,0,-0.0348,-0.0349,0,0,0,0,0,0,0,0,-0.0442,-0.0442,-0.0423,-0.042,-0.0416,-0.0403,-0.0429,-0.0427,-0.0368,-0.0384,-0.0361,-0.0358,-0.0364,-0.0363,-0.0365,-0.0401,-0.04,-0.0348,-0.0349,-0.035,-0.035,0,0,0,0,0,0,0,-0.0442,-0.0442,-0.0448,-0.0424,-0.0419,-0.041,-0.0406,-0.0428,-0.0387,-0.0382,-0.0377,-0.0378,-0.0361,-0.0364,-0.0364,-0.04,-0.0348,-0.035,-0.035,-0.0351,-0.0362,-0.0362,0,0,0,0,0,0,-0.0448,-0.0443,-0.0449,-0.0448,-0.0424,-0.0412,-0.0408,-0.0409,-0.0387,-0.0382,-0.038,-0.0374,-0.0362,-0.0362,-0.0363,-0.0281,-0.035,-0.0351,-0.0352,-0.0363,-0.0362,-0.0361,0,0,0,0,0,0,-0.0448,-0.0448,-0.045,-0.0445,-0.0445,-0.0414,-0.0417,-0.041,-0.0346,-0.0385,-0.0379,-0.0315,-0.036,-0.0361,-0.0331,-0.0285,-0.0352,-0.0353,-0.0364,-0.0363,-0.0362,-0.0215,0,0,0,0,0,0,-0.0447,-0.0449,-0.044,-0.0446,-0.0445,-0.0427,-0.0419,-0.0412,-0.0355,-0.0346,-0.033,-0.0329,-0.0358,-0.0328,-0.0332,-0.0289,-0.0354,-0.0364,-0.0363,-0.0362,-0.022,-0.0209,-0.0199,0,0,0,0,0,-0.0447,-0.0446,-0.044,-0.044,-0.0439,-0.0426,-0.0423,-0.0394,-0.0353,-0.0325,-0.0308,-0.0325,-0.0324,-0.0328,-0.0333,-0.0289,-0.0365,-0.0364,-0.0362,-0.0225,-0.0211,-0.0199,0,0,0,0,0,0,-0.0439,-0.044,-0.0432,-0.0431,-0.0412,-0.0412,-0.0382,-0.0358,-0.0322,-0.0287,-0.0313,-0.0313,-0.0274,-0.0311,-0.0315,-0.0295,-0.035,-0.035,-0.0244,-0.0232,-0.0221,-0.0201,-0.0356,0,0,0,0,0,-0.0438,-0.0427,-0.0427,-0.0418,-0.04,-0.0377,-0.0359,-0.0329,-0.0308,-0.0284,-0.0263,-0.0264,-0.0288,-0.0276,-0.0297,-0.028,-0.0355,-0.0261,-0.025,-0.024,-0.0231,-0.0349,-0.0348,-0.0357,-0.0357,-0.0357,0,0,-0.0432,-0.0429,-0.0423,-0.0413,-0.0388,-0.0354,-0.0356,-0.03,-0.0258,-0.0294,-0.0201,-0.0217,-0.0277,-0.0256,-0.0243,-0.0267,-0.0269,-0.0239,-0.0229,-0.0226,-0.0348,-0.0347,-0.0346,-0.0356,-0.0356,-0.0356,0,0,-0.0409,-0.0404,-0.0378,-0.0354,-0.0307,-0.0299,-0.0265,-0.0214,-0.0173,-0.0107,-0.0137,-0.0134,-0.011,-0.0172,-0.0203,-0.0156,-0.0213,-0.0132,-0.0051,-0.0165,-0.0165,-0.0166,-0.0222,-0.0229,-0.0122,-0.0122,-0.0122,0,-0.0392,-0.0368,-0.0366,-0.0324,-0.0289,-0.0261,-0.0203,-0.0181,-0.0117,-0.0097,-0.0047,-0.0065,-0.0091,-0.015,-0.0101,-0.0133,-0.017,-0.0087,-0.015,-0.0154,-0.0158,-0.0215,-0.0225,-0.0115,-0.0115,-0.0116,-0.0117,0,-0.0353,-0.0312,-0.0284,-0.0227,-0.0194,-0.0134,-0.0104,-0.0044,0.0029,0.0039,0.0066,0.0027,0.0016,0.0005,-0.0008,-0.0049,-0.0055,-0.0126,-0.0177,-0.0148,-0.0209,-0.0223,-0.0104,-0.0107,-0.0109,-0.0111,0,0,-0.0349,-0.0271,-0.0251,-0.0208,-0.0123,-0.01,-0.0022,0.0018,0.0039,0.0118,0.0129,0.0128,0.0138,0.0101,0.0058,-0.0015,-0.0044,-0.0026,-0.0036,-0.0068,-0.0225,-0.0053,-0.0052,-0.0101,-0.0104,-0.0106,-0.0243,0,-0.0297,-0.0219,-0.018,-0.0085,-0.0037,0.0017,0.006,0.0099,0.0138,0.015,0.0112,0.0109,0.0157,0.0164,0.0115,-0.0028,-0.0075,0.0004,-0.026,-0.0268,-0.011,-0.0062,-0.0113,-0.0253,-0.0257,-0.0259,-0.0261,0,-0.0257,-0.0211,-0.0113,-0.003,-0.0001,0.0057,0.0121,0.0159,0.0153,0.0186,0.0198,0.0179,0.0133,0.014,-0.0021,0.005,-0.0033,-0.0148,-0.0159,-0.006,-0.012,-0.0304,-0.0286,-0.0284,-0.0283,-0.0281,-0.0279,0,-0.0275,-0.0159,-0.0083,-0.0046,0.0042,0.0104,0.0153,0.0179,0.0175,0.0196,0.0189,0.0162,0.0109,0.0024,-0.0083,-0.0041,-0.0314,-0.0329,-0.0268,-0.0258,-0.0443,-0.0441,-0.0465,-0.0465,-0.0465,-0.0465,-0.0464,0,-0.0244,-0.0184,-0.0083,-0.0048,0.0037,0.0101,0.0145,0.0199,0.0182,0.0159,0.0208,0.0169,0.008,-0.0048,-0.0114,-0.0197,-0.0333,-0.0226,-0.0278,-0.0371,-0.036,-0.045,-0.0447,-0.047,-0.0469,-0.0468,-0.0467,0,-0.0265,-0.0198,-0.0126,-0.0017,0.0031,0.0085,0.0146,0.0141,0.0158,0.0123,0.0139,0.0116,0.0077,-0.0044,-0.0251,-0.0256,-0.0379,-0.0403,-0.0463,-0.0524,-0.0225,-0.0213,-0.0279,-0.0274,-0.027,-0.0266,-0.0263,0,-0.025,-0.0222,-0.0116,-0.0027,0.0048,0.0118,0.0156,0.0149,0.0131,0.01,0.0073,0.0044,0.0059,-0.011,-0.0194,-0.0289,-0.0305,-0.0386,-0.0265,-0.0159,-0.0206,-0.02,-0.0193,-0.0256,-0.0255,-0.0254,-0.0253,0,-0.0232,-0.0211,-0.0141,0.0007,0.0089,0.0105,0.016,0.0124,0.0102,0.0065,0.0068,0.0079,0.0024,-0.0011,-0.0102,-0.0188,-0.0323,-0.034,-0.0347,-0.0234,-0.0133,-0.0182,-0.018,-0.0238,-0.024,-0.0242,-0.0243,0,-0.0181,-0.0138,-0.0041,0.0084,0.0149,0.0152,0.0143,0.0154,0.0099,0.0074,0.0061,0.0063,0.0023,0.0036,-0.0066,-0.0077,-0.0027,-0.0065,-0.0086,-0.0103,0.0032,0.019,0.016,0,0,0,0,0,-0.0086,-0.0032,0.0069,0.0172,0.0192,0.0202,0.019,0.0151,0.0073,0.0098,0.0094,0.0097,0.0117,0.0087,0.0125,0.0049,-0.0043,0.0092,-0.0102,-0.0156,-0.0173,-0.0023,0,0,0,0,0,0,0.0023,0.0087,0.0078,0.0166,0.0242,0.0216,0.0187,0.014,0.0149,0.0122,0.013,0.0116,0.0121,0.0113,0.0132,0.0126,0.0011,0.0081,0.0083,-0.0147,-0.0162,-0.0176,-0.0027,0,0,0,0,0]},{"header":{"parameterUnit":"m.s-1","parameterCategory":2,"la1":30.2991,"la2":30.254,"lo1":-89.0895,"lo2":-89.0444,"dy":0.0017,"dx":0.0017,"nx":28,"ny":28,"refTime":"2024-10-13T09:00:00:Z","depth":"4","parameterNumber":3,"parameterNumberName":"V-component_of_CURRENTS"},"data":[0,0,0,0,0,0,0,0,0,0,0,0,0,0,0,0,0,0,0,0,0,0,0,0,0,0,0,0,0,0,0,0,0,0,0,0,0,0,0,0,0,0,0,0,0,0,0,0,0,0,0,0,0,0,0,0,0,0,0.0309,0.0309,0,0.0261,0.026,0.0259,0.0227,0.0227,0.0227,0.0228,0.0115,0.0111,0.0108,0,0,0,0,0,0,0,0,0,0,0,0,0,0.029,0.029,0.0309,0.0309,0.0309,0.0261,0.026,0.0258,0.0226,0.0227,0.0228,0.0228,0.0116,0.0112,0.0108,0,0,0,0,0,0,0,0,0,0,0,0,0,0.0269,0.0291,0.0309,0.0293,0.0291,0.0261,0.026,0.0258,0.0226,0.0227,0.0228,0.0228,0.0117,0.0112,0.0107,0.0062,0,0,0.0091,0.0089,0,0,0,0,0,0,0,0,0.027,0.0269,0.0295,0.0294,0.0292,0.0257,0.0212,0.0192,0.0226,0.0243,0.0228,0.0229,0.016,0.0152,0.0132,0.0057,0.0052,0.0091,0.0088,0.0086,0.0084,0,0,0,0,0,0,0,0.0272,0.027,0.0283,0.0295,0.0294,0.026,0.0258,0.0207,0.0192,0.0242,0.0241,0.0247,0.0158,0.0137,0.0129,0.005,0.0091,0.0086,0.0083,0.0081,-0.009,-0.0091,0,0,0,0,0,0,0.0296,0.0272,0.0284,0.0282,0.0291,0.0261,0.0258,0.0262,0.0194,0.0187,0.0247,0.0246,0.0145,0.0135,0.0125,0.0055,0.0086,0.0081,0.0078,-0.0088,-0.009,-0.0092,0,0,0,0,0,0,0.0296,0.0298,0.0286,0.0282,0.0279,0.0262,0.0265,0.026,0.024,0.02,0.019,0.0234,0.0145,0.0132,0.0065,0.0051,0.0078,0.0074,-0.0086,-0.0089,-0.0091,-0.0077,0,0,0,0,0,0,0.0295,0.0298,0.0316,0.0284,0.028,0.0263,0.0265,0.0259,0.0247,0.0245,0.0185,0.0175,0.0145,0.0073,0.006,0.0044,0.007,-0.0085,-0.0087,-0.009,-0.0076,-0.0079,-0.0081,0,0,0,0,0,0.0295,0.0312,0.0317,0.0319,0.0304,0.0263,0.0257,0.0242,0.0246,0.0227,0.0183,0.0177,0.0047,0.0067,0.0053,0.0035,-0.0083,-0.0087,-0.009,-0.0075,-0.0078,-0.0081,0,0,0,0,0,0,0.0318,0.031,0.0315,0.0332,0.0301,0.0261,0.0259,0.0241,0.0192,0.0194,0.015,0.0135,0.0069,0.0046,0.007,-0.0024,-0.0016,-0.0023,0.0,-0.0003,-0.0006,0.0015,0.0065,0,0,0,0,0,0.0334,0.0342,0.0318,0.0331,0.0321,0.0289,0.0277,0.0258,0.0214,0.0195,0.0152,0.0103,0.0043,0.0017,-0.0039,-0.009,-0.0091,-0.011,-0.0113,-0.0114,-0.0109,-0.0152,-0.0157,-0.0102,-0.0102,-0.0102,0,0,0.035,0.0348,0.0354,0.0337,0.0318,0.0286,0.0281,0.0257,0.0223,0.0188,0.0131,0.0085,0.0023,-0.0039,-0.0068,-0.0057,-0.0124,-0.0119,-0.012,-0.0113,-0.0156,-0.0161,-0.0165,-0.0104,-0.0104,-0.0104,0,0,0.0365,0.0378,0.038,0.0351,0.0326,0.0295,0.0288,0.0241,0.0215,0.0157,0.0116,0.0058,-0.0014,-0.0071,-0.0106,-0.0159,-0.0145,-0.0166,-0.0154,-0.0196,-0.02,-0.0204,-0.0174,-0.0176,-0.0157,-0.0157,-0.0157,0,0.0388,0.039,0.0371,0.035,0.0337,0.0298,0.0277,0.023,0.0164,0.0136,0.0144,0.0014,-0.0033,-0.0126,-0.0135,-0.0165,-0.0153,-0.0133,-0.0197,-0.0201,-0.0205,-0.0174,-0.0176,-0.0157,-0.0157,-0.0157,-0.0157,0,0.0381,0.0388,0.0383,0.0348,0.0316,0.0297,0.0235,0.0194,0.0171,0.0127,0.0045,-0.0022,-0.0081,-0.0117,-0.0136,-0.0199,-0.0167,-0.02,-0.018,-0.0209,-0.0175,-0.0177,-0.0157,-0.0157,-0.0157,-0.0157,0,0,0.0434,0.0392,0.0402,0.0392,0.0321,0.0301,0.0228,0.0162,0.0129,0.0063,0.0014,-0.0084,-0.009,-0.013,-0.0171,-0.0212,-0.0217,-0.0198,-0.02,-0.0151,-0.0244,-0.0227,-0.0227,-0.0252,-0.0254,-0.0255,-0.0193,0,0.0447,0.0448,0.0401,0.0379,0.0368,0.0296,0.0237,0.0163,0.0106,0.0041,-0.0038,-0.0083,-0.0104,-0.0103,-0.016,-0.0225,-0.0227,-0.0227,-0.0239,-0.0238,-0.0207,-0.0233,-0.0259,-0.0194,-0.0195,-0.0195,-0.0195,0,0.0466,0.0463,0.0481,0.0417,0.0406,0.0398,0.0322,0.0258,0.0135,0.0089,0.0017,-0.0042,-0.0116,-0.0116,-0.0208,-0.0197,-0.0195,-0.0237,-0.0236,-0.0229,-0.0227,-0.0172,-0.0199,-0.0198,-0.0198,-0.0198,-0.0198,0,0.0552,0.0518,0.0557,0.0539,0.0458,0.0471,0.0437,0.0322,0.0252,0.017,0.0122,0.0006,-0.0024,-0.0085,-0.0143,-0.0161,-0.0232,-0.0273,-0.025,-0.0245,-0.028,-0.0277,-0.0302,-0.0302,-0.0302,-0.0302,-0.0302,0,0.0569,0.0609,0.0639,0.0655,0.0673,0.0603,0.0591,0.0516,0.0402,0.0287,0.0215,0.0105,-0.0016,-0.009,-0.0131,-0.0185,-0.0203,-0.0241,-0.0245,-0.027,-0.0268,-0.0278,-0.0276,-0.03,-0.03,-0.0301,-0.0301,0,0.0631,0.0662,0.0712,0.0715,0.0728,0.0766,0.0699,0.0639,0.0572,0.0423,0.041,0.0202,0.0091,0.0003,-0.0112,-0.0151,-0.0208,-0.0199,-0.0157,-0.016,-0.0187,-0.0186,-0.0194,-0.0193,-0.0192,-0.0192,-0.0191,0,0.065,0.0695,0.0791,0.0804,0.0831,0.0865,0.0833,0.0759,0.0649,0.044,0.0337,0.0228,0.0088,-0.0009,-0.0124,-0.0158,-0.0171,-0.0145,-0.0233,-0.0181,-0.0184,-0.0184,-0.0183,-0.019,-0.019,-0.019,-0.019,0,0.0624,0.0725,0.0749,0.0807,0.0849,0.0832,0.0795,0.0752,0.0584,0.0524,0.0305,0.0207,0.0069,-0.0052,-0.0032,-0.0089,-0.0158,-0.0139,-0.0142,-0.0226,-0.0178,-0.0181,-0.0181,-0.0188,-0.0188,-0.0188,-0.0188,0,0.0612,0.0642,0.0687,0.0733,0.0759,0.0741,0.0777,0.065,0.0579,0.037,0.0286,0.0152,0.0046,-0.0017,-0.0048,-0.0055,-0.0099,-0.0097,-0.0103,-0.0107,-0.0124,-0.0053,-0.0024,0,0,0,0,0,0.051,0.052,0.0547,0.0592,0.0625,0.0641,0.0632,0.064,0.0547,0.0411,0.0353,0.0224,0.011,0.003,0.0027,-0.0064,-0.0101,-0.007,-0.01,-0.0176,-0.0178,-0.0216,0,0,0,0,0,0,0.0439,0.0456,0.0496,0.0437,0.0448,0.0459,0.0491,0.0475,0.0401,0.0322,0.0284,0.0208,0.0126,0.0108,0.0011,-0.0007,-0.0025,-0.0135,-0.0135,-0.0174,-0.0177,-0.0179,-0.0218,0,0,0,0,0]}]]